Content
SEND FEEDBACK

Daily
Averages
Monthly
Summary
China

WUHAN, CHINA


Home > Asia > China
Elevation: 75 feet     Latitude: 30 37N     Longitude: 114 08E

WEATHER
 
SELECT A DAY
Number of Records: 138,345;   Date Range: 1/29/00 - 9/21/14
 
SHARE

PRINT THIS DATA

[ ← Previous Day ]
WEATHER ALMANAC - NOVEMBER 12, 2013
[ Next Day → ]
[ °C ]   °F
Weather ElementAverageHighLow
Temperature50 °F51.8 °F (1:00 am)48.2 °F (7:00 am)
Dewpoint45.9 °F50 °F (2:00 am)41 °F (6:00 am)
Humidity84.9 %94 % (2:00 am)69 % (8:00 am)
Barometer30.23 in30.27 in (10:00 am)30.18 in (2:00 pm)
Wind Speed3.2 mph6.7 mph (3:00 am)
Weather ElementAverage
Visibility2.7 mi
Wind DirectionENE (71 °)

Weather ElementTotal
Precipitation---
Heating Degree Days15 (Base 65)
Averaged from 31 records on November 12, 2013
WEATHER CONDITIONS BREAKOUT
WIND DIRECTION BREAKOUT
WEATHER BY HOUR - NOVEMBER 12, 2013
[ °C ]   °F
Local TimeTemperatureDewpointHumidityBarometerVisibilityWind DirectionWind SpeedGust SpeedPrecipitationEventsConditions
1:00 AM51.8 °F48.2 °F88 %30.24 in1.6 miNE (50°)4.5 mphMist
2:00 AM51.0 °F50.0 °F94 %30.26 inNorth4.5 mphClear
2:00 AM51.8 °F50.0 °F94 %30.24 in1.2 miVariable2.2 mphMist
3:00 AM50.0 °F48.2 °F94 %30.21 in1.6 miNE (40°)6.7 mphScattered Clouds
4:00 AM50.0 °F44.6 °F82 %30.21 in1.9 miNE (40°)4.5 mphScattered Clouds
5:00 AM51.0 °F44.0 °F71 %30.22 inNNE (20°)6.7 mphClear
5:00 AM50.0 °F44.6 °F82 %30.21 in2.5 miNE (40°)4.5 mphScattered Clouds
6:00 AM50.0 °F41.0 °F71 %30.21 in3.1 miNNE (30°)4.5 mphMist
7:00 AM48.2 °F42.8 °F82 %30.24 in3.7 miNNE (30°)4.5 mphScattered Clouds
8:00 AM49.0 °F42.0 °F69 %30.26 in5.0 miNNE (20°)2.2 mphHaze
8:00 AM48.2 °F42.8 °F82 %30.24 in3.1 miNE (40°)4.5 mphRainLight Rain
9:00 AM48.2 °F44.6 °F87 %30.24 in3.1 miNE (40°)4.5 mphRainLight Rain
10:00 AM50.0 °F44.6 °F82 %30.27 in2.5 miNNE (30°)4.5 mphRainLight Rain
11:00 AM49.0 °F46.0 °F87 %30.27 in3.0 miNNW (340°)2.2 mphRainLight Rain
11:00 AM50.0 °F44.6 °F82 %30.27 in2.5 miVariable2.2 mphRainLight Rain
12:00 PM51.8 °F46.4 °F82 %30.24 in2.5 miNorth (360°)4.5 mphRainLight Rain
1:00 PM50.0 °F44.6 °F82 %30.21 in3.1 miNE (50°)4.5 mphRainLight Rain
2:00 PM49.0 °F47.0 °F90 %30.21 in2.0 miNW (320°)2.2 mphRainLight Rain
2:00 PM50.0 °F44.6 °F82 %30.18 in3.1 miVariable2.2 mphRainLight Rain
3:00 PM50.0 °F46.4 °F87 %30.18 in2.5 miVariable2.2 mphRainLight Rain
4:00 PM50.0 °F46.4 °F87 %30.18 in2.5 miVariable2.2 mphRainLight Rain
5:00 PM50.0 °F47.0 °F85 %30.22 in3.0 miNNW (340°)2.2 mphRainLight Rain
5:00 PM50.0 °F46.4 °F87 %30.21 in2.5 miVariable2.2 mphRainLight Rain
6:00 PM50.0 °F48.2 °F94 %30.21 in2.5 miCalmRainLight Rain
7:00 PM50.0 °F46.4 °F87 %30.21 in3.1 miVariable2.2 mphPartly Cloudy
8:00 PM50.0 °F47.0 °F86 %30.25 in2.0 miCalmMist
8:00 PM50.0 °F46.4 °F87 %30.24 in3.1 miVariable2.2 mphMist
9:00 PM50.0 °F46.4 °F87 %30.24 in3.1 miVariable2.2 mphMist
10:00 PM50.0 °F46.4 °F87 %30.24 in3.1 miVariable2.2 mphMist
11:00 PM50.0 °F48.0 °F89 %30.26 inNNW (340°)2.2 mphClear
11:00 PM50.0 °F46.4 °F87 %30.24 in2.5 miVariable2.2 mphMist
Hourly data recorded from ZHHH, located miles away from Wuhan, China







STORIES FROM OUR PARTNERS